Location: Newark
(48.6461°N, 4.3644°W)
Time: 11:33:33
(UTC+00:00)

S-56A Canister/Altair - Pass Details

Date: 18 January 2020
Orbit: 633 x 2499 km, 38.9° (Epoch: 22 February)

Event Time Altitude Azimuth Distance (km) Brightness Sun altitude
Rises 22:25:29 0° 217° (SW) 3,195 - -52.7°
Reaches altitude 10° 22:29:00 10° 194° (SSW) 2,102 - -53.2°
Maximum altitude 22:31:35 15° 160° (SSE) 1,740 - -53.5°
Drops below altitude 10° 22:34:03 10° 125° (SE) 2,007 - -53.8°
Sets 22:37:16 0° 101° (E) 2,957 - -54.2°
